Time,TemperatureF,DewpointF,PressureIn,WindDirection,WindDirectionDegrees,WindSpeedMPH,WindSpeedGustMPH,Humidity,HourlyPrecipIn,Conditions,Clouds,dailyrainin,SolarRadiationWatts/m^2,SoftwareType,DateUTC
2013-03-07 00:08:00,25.3,21.0,30.37,WNW,293,2.0,6.0,84,0.00,,,0.00,0,weatherlink.com 1.10,2013-03-07 06:08:00,
2013-03-07 00:23:00,24.8,21.0,30.38,West,276,3.0,5.0,84,0.00,,,0.00,0,weatherlink.com 1.10,2013-03-07 06:23:00,
2013-03-07 00:39:00,24.5,21.0,30.38,West,265,5.0,7.0,85,0.00,,,0.00,0,weatherlink.com 1.10,2013-03-07 06:39:00,
2013-03-07 00:54:00,23.8,20.0,30.38,West,269,4.0,6.0,85,0.00,,,0.00,0,weatherlink.com 1.10,2013-03-07 06:54:00,
2013-03-07 01:09:00,23.2,19.0,30.39,WNW,289,5.0,6.0,85,0.00,,,0.00,0,weatherlink.com 1.10,2013-03-07 07:09:00,
2013-03-07 01:24:00,22.7,19.0,30.39,West,275,3.0,7.0,85,0.00,,,0.00,0,weatherlink.com 1.10,2013-03-07 07:24:00,
2013-03-07 01:39:00,21.9,18.0,30.39,West,268,3.0,5.0,85,0.00,,,0.00,0,weatherlink.com 1.10,2013-03-07 07:39:00,
2013-03-07 01:54:00,21.2,17.0,30.39,West,274,3.0,4.0,84,0.00,,,0.00,0,weatherlink.com 1.10,2013-03-07 07:54:00,
2013-03-07 02:09:00,19.3,16.0,30.40,WSW,254,0.0,2.0,85,0.00,,,0.00,0,weatherlink.com 1.10,2013-03-07 08:09:00,
2013-03-07 02:24:00,18.4,16.0,30.40,SW,228,2.0,3.0,88,0.00,,,0.00,0,weatherlink.com 1.10,2013-03-07 08:24:00,
2013-03-07 02:39:00,18.3,15.0,30.40,WSW,246,0.0,5.0,87,0.00,,,0.00,0,weatherlink.com 1.10,2013-03-07 08:39:00,
2013-03-07 02:54:00,18.3,15.0,30.40,WSW,244,0.0,2.0,88,0.00,,,0.00,0,weatherlink.com 1.10,2013-03-07 08:54:00,
2013-03-07 03:09:00,18.2,15.0,30.40,WSW,245,2.0,4.0,87,0.00,,,0.00,0,weatherlink.com 1.10,2013-03-07 09:09:00,
2013-03-07 03:39:00,17.3,14.0,30.40,WSW,245,0.0,0.0,86,0.00,,,0.00,0,weatherlink.com 1.10,2013-03-07 09:39:00,
2013-03-07 04:09:00,15.0,11.0,30.40,WSW,245,0.0,1.0,85,0.00,,,0.00,0,weatherlink.com 1.10,2013-03-07 10:09:00,
2013-03-07 04:24:00,13.7,11.0,30.41,WSW,245,0.0,1.0,89,0.00,,,0.00,0,weatherlink.com 1.10,2013-03-07 10:24:00,
2013-03-07 04:39:00,11.7,9.0,30.41,WSW,245,0.0,2.0,87,0.00,,,0.00,0,weatherlink.com 1.10,2013-03-07 10:39:00,
2013-03-07 04:54:00,12.3,11.0,30.42,WSW,245,1.0,2.0,93,0.00,,,0.00,0,weatherlink.com 1.10,2013-03-07 10:54:00,
2013-03-07 05:09:00,10.7,8.0,30.42,WSW,245,0.0,1.0,89,0.00,,,0.00,0,weatherlink.com 1.10,2013-03-07 11:09:00,
2013-03-07 05:25:00,9.2,7.0,30.43,WSW,245,0.0,1.0,90,0.00,,,0.00,0,weatherlink.com 1.10,2013-03-07 11:25:00,
2013-03-07 05:40:00,9.0,7.0,30.43,WSW,245,0.0,1.0,91,0.00,,,0.00,0,weatherlink.com 1.10,2013-03-07 11:40:00,
2013-03-07 06:10:00,8.3,6.0,30.44,WSW,245,0.0,0.0,91,0.00,,,0.00,0,weatherlink.com 1.10,2013-03-07 12:10:00,
2013-03-07 06:25:00,8.8,7.0,30.44,WSW,245,0.0,0.0,92,0.00,,,0.00,5,weatherlink.com 1.10,2013-03-07 12:25:00,
2013-03-07 06:40:00,7.6,5.0,30.44,WSW,245,0.0,0.0,89,0.00,,,0.00,16,weatherlink.com 1.10,2013-03-07 12:40:00,
2013-03-07 07:10:00,10.1,9.0,30.45,WSW,246,0.0,1.0,94,0.00,,,0.00,60,weatherlink.com 1.10,2013-03-07 13:10:00,
2013-03-07 07:25:00,12.4,11.0,30.46,WSW,253,0.0,3.0,94,0.00,,,0.00,46,weatherlink.com 1.10,2013-03-07 13:25:00,
2013-03-07 07:40:00,13.0,11.0,30.46,WSW,253,0.0,0.0,92,0.00,,,0.00,167,weatherlink.com 1.10,2013-03-07 13:40:00,
2013-03-07 07:55:00,13.0,11.0,30.46,WSW,253,0.0,0.0,92,0.00,,,0.00,49,weatherlink.com 1.10,2013-03-07 13:55:00,
2013-03-07 08:10:00,12.5,10.0,30.47,WSW,253,0.0,1.0,90,0.00,,,0.00,54,weatherlink.com 1.10,2013-03-07 14:10:00,
2013-03-07 08:25:00,12.1,10.0,30.47,WSW,253,0.0,0.0,91,0.00,,,0.00,60,weatherlink.com 1.10,2013-03-07 14:25:00,
2013-03-07 08:40:00,14.0,12.0,30.48,WSW,253,1.0,1.0,93,0.00,,,0.00,63,weatherlink.com 1.10,2013-03-07 14:40:00,
2013-03-07 08:55:00,15.5,14.0,30.48,WSW,253,0.0,1.0,93,0.00,,,0.00,70,weatherlink.com 1.10,2013-03-07 14:55:00,
2013-03-07 09:10:00,16.4,14.0,30.48,WSW,253,0.0,2.0,91,0.00,,,0.00,116,weatherlink.com 1.10,2013-03-07 15:10:00,
2013-03-07 09:25:00,17.1,15.0,30.48,WSW,253,0.0,1.0,90,0.00,,,0.00,185,weatherlink.com 1.10,2013-03-07 15:25:00,
2013-03-07 09:40:00,18.2,16.0,30.48,WSW,253,1.0,2.0,89,0.00,,,0.00,374,weatherlink.com 1.10,2013-03-07 15:40:00,
2013-03-07 10:10:00,21.6,18.0,30.47,NNE,26,2.0,3.0,86,0.00,,,0.00,336,weatherlink.com 1.10,2013-03-07 16:10:00,
2013-03-07 10:25:00,23.1,19.0,30.47,NNE,29,2.0,4.0,83,0.00,,,0.00,613,weatherlink.com 1.10,2013-03-07 16:25:00,
2013-03-07 10:40:00,24.1,19.0,30.47,North,5,2.0,3.0,82,0.00,,,0.00,638,weatherlink.com 1.10,2013-03-07 16:40:00,
2013-03-07 10:55:00,24.9,19.0,30.48,NNE,19,2.0,4.0,79,0.00,,,0.00,547,weatherlink.com 1.10,2013-03-07 16:55:00,
2013-03-07 11:10:00,25.2,20.0,30.48,NNW,341,3.0,4.0,79,0.00,,,0.00,244,weatherlink.com 1.10,2013-03-07 17:10:00,
2013-03-07 11:25:00,26.1,20.0,30.49,NNW,342,0.0,3.0,78,0.00,,,0.00,81,weatherlink.com 1.10,2013-03-07 17:25:00,
2013-03-07 11:41:00,26.5,20.0,30.48,NNE,14,0.0,4.0,77,0.00,,,0.00,84,weatherlink.com 1.10,2013-03-07 17:41:00,
2013-03-07 11:56:00,26.9,20.0,30.48,North,5,2.0,3.0,76,0.00,,,0.00,192,weatherlink.com 1.10,2013-03-07 17:56:00,
2013-03-07 12:11:00,27.2,21.0,30.48,NNE,28,3.0,4.0,76,0.00,,,0.00,86,weatherlink.com 1.10,2013-03-07 18:11:00,
2013-03-07 12:26:00,27.4,20.0,30.47,NNE,27,1.0,4.0,75,0.00,,,0.00,79,weatherlink.com 1.10,2013-03-07 18:26:00,
2013-03-07 12:41:00,28.2,21.0,30.47,NNW,336,1.0,3.0,75,0.00,,,0.00,431,weatherlink.com 1.10,2013-03-07 18:41:00,
2013-03-07 12:56:00,29.3,22.0,30.47,NE,38,0.0,2.0,73,0.00,,,0.00,680,weatherlink.com 1.10,2013-03-07 18:56:00,
2013-03-07 13:11:00,30.3,22.0,30.46,North,9,0.0,3.0,71,0.00,,,0.00,689,weatherlink.com 1.10,2013-03-07 19:11:00,
2013-03-07 13:26:00,32.0,22.0,30.47,North,9,0.0,3.0,68,0.00,,,0.00,624,weatherlink.com 1.10,2013-03-07 19:26:00,
2013-03-07 13:41:00,32.3,22.0,30.46,NE,53,2.0,3.0,67,0.00,,,0.00,679,weatherlink.com 1.10,2013-03-07 19:41:00,
2013-03-07 13:56:00,31.2,22.0,30.46,NE,55,1.0,3.0,69,0.00,,,0.00,394,weatherlink.com 1.10,2013-03-07 19:56:00,
2013-03-07 14:11:00,31.3,23.0,30.47,NNW,346,0.0,3.0,71,0.00,,,0.00,369,weatherlink.com 1.10,2013-03-07 20:11:00,
2013-03-07 14:26:00,30.6,23.0,30.46,West,267,2.0,4.0,73,0.00,,,0.00,190,weatherlink.com 1.10,2013-03-07 20:26:00,
2013-03-07 14:41:00,30.8,23.0,30.46,West,267,0.0,2.0,72,0.00,,,0.00,403,weatherlink.com 1.10,2013-03-07 20:41:00,
2013-03-07 14:55:00,31.6,24.0,30.46,West,273,0.0,1.0,72,0.00,,,0.00,403,weatherlink.com 1.10,2013-03-07 20:55:00,
2013-03-07 15:10:00,32.9,23.0,30.47,NE,39,2.0,3.0,67,0.00,,,0.00,374,weatherlink.com 1.10,2013-03-07 21:10:00,
2013-03-07 15:26:00,31.0,23.0,30.46,NE,54,1.0,3.0,71,0.00,,,0.00,285,weatherlink.com 1.10,2013-03-07 21:26:00,
2013-03-07 15:41:00,30.3,23.0,30.47,NE,46,1.0,3.0,74,0.00,,,0.00,250,weatherlink.com 1.10,2013-03-07 21:41:00,
2013-03-07 15:56:00,29.5,22.0,30.47,NNE,30,2.0,4.0,74,0.00,,,0.00,169,weatherlink.com 1.10,2013-03-07 21:56:00,
2013-03-07 16:11:00,28.6,22.0,30.46,NE,38,2.0,3.0,76,0.00,,,0.00,192,weatherlink.com 1.10,2013-03-07 22:11:00,
2013-03-07 16:26:00,29.0,22.0,30.46,East,82,3.0,5.0,74,0.00,,,0.00,151,weatherlink.com 1.10,2013-03-07 22:26:00,
2013-03-07 16:41:00,28.7,21.0,30.46,ENE,61,3.0,6.0,73,0.00,,,0.00,114,weatherlink.com 1.10,2013-03-07 22:41:00,
2013-03-07 16:56:00,28.4,21.0,30.46,ENE,59,3.0,4.0,73,0.00,,,0.00,139,weatherlink.com 1.10,2013-03-07 22:56:00,
2013-03-07 17:26:00,26.9,20.0,30.48,ENE,63,2.0,2.0,74,0.00,,,0.00,37,weatherlink.com 1.10,2013-03-07 23:26:00,
2013-03-07 17:41:00,26.0,19.0,30.48,East,83,1.0,2.0,76,0.00,,,0.00,11,weatherlink.com 1.10,2013-03-07 23:41:00,
2013-03-07 17:56:00,26.3,19.0,30.48,East,82,0.0,2.0,75,0.00,,,0.00,0,weatherlink.com 1.10,2013-03-07 23:56:00,
2013-03-07 18:11:00,25.0,18.0,30.48,East,81,0.0,1.0,76,0.00,,,0.00,0,weatherlink.com 1.10,2013-03-08 00:11:00,
2013-03-07 18:26:00,24.4,19.0,30.48,East,81,0.0,1.0,79,0.00,,,0.00,0,weatherlink.com 1.10,2013-03-08 00:26:00,
2013-03-07 18:41:00,23.6,18.0,30.49,East,81,0.0,0.0,78,0.00,,,0.00,0,weatherlink.com 1.10,2013-03-08 00:41:00,
2013-03-07 18:56:00,22.5,18.0,30.49,East,81,0.0,0.0,81,0.00,,,0.00,0,weatherlink.com 1.10,2013-03-08 00:56:00,
2013-03-07 19:11:00,22.1,17.0,30.49,East,81,0.0,0.0,82,0.00,,,0.00,0,weatherlink.com 1.10,2013-03-08 01:11:00,
2013-03-07 19:26:00,22.1,17.0,30.49,East,81,0.0,0.0,82,0.00,,,0.00,0,weatherlink.com 1.10,2013-03-08 01:26:00,
2013-03-07 19:41:00,21.4,17.0,30.49,East,81,0.0,0.0,83,0.00,,,0.00,0,weatherlink.com 1.10,2013-03-08 01:41:00,
2013-03-07 19:56:00,19.2,15.0,30.49,East,81,0.0,0.0,82,0.00,,,0.00,0,weatherlink.com 1.10,2013-03-08 01:56:00,
2013-03-07 20:11:00,19.4,16.0,30.49,East,81,0.0,0.0,87,0.00,,,0.00,0,weatherlink.com 1.10,2013-03-08 02:11:00,
2013-03-07 20:26:00,20.1,17.0,30.49,East,81,0.0,1.0,87,0.00,,,0.00,0,weatherlink.com 1.10,2013-03-08 02:26:00,
2013-03-07 20:41:00,19.9,15.0,30.50,East,81,0.0,0.0,81,0.00,,,0.00,0,weatherlink.com 1.10,2013-03-08 02:41:00,
2013-03-07 20:57:00,19.9,17.0,30.50,East,82,0.0,0.0,88,0.00,,,0.00,0,weatherlink.com 1.10,2013-03-08 02:57:00,
2013-03-07 21:11:00,19.8,17.0,30.50,East,81,0.0,0.0,88,0.00,,,0.00,0,weatherlink.com 1.10,2013-03-08 03:11:00,
2013-03-07 21:26:00,20.2,17.0,30.50,East,81,0.0,0.0,86,0.00,,,0.00,0,weatherlink.com 1.10,2013-03-08 03:26:00,
2013-03-07 21:41:00,19.1,16.0,30.50,East,81,0.0,0.0,86,0.00,,,0.00,0,weatherlink.com 1.10,2013-03-08 03:41:00,
2013-03-07 21:56:00,20.3,18.0,30.51,East,81,0.0,1.0,89,0.00,,,0.00,0,weatherlink.com 1.10,2013-03-08 03:56:00,
2013-03-07 22:11:00,21.1,18.0,30.51,East,81,0.0,1.0,87,0.00,,,0.00,0,weatherlink.com 1.10,2013-03-08 04:11:00,
2013-03-07 22:26:00,21.4,18.0,30.51,East,81,0.0,1.0,86,0.00,,,0.00,0,weatherlink.com 1.10,2013-03-08 04:26:00,
2013-03-07 22:41:00,21.3,18.0,30.50,East,81,0.0,1.0,86,0.00,,,0.00,0,weatherlink.com 1.10,2013-03-08 04:41:00,
2013-03-07 22:56:00,21.2,18.0,30.51,East,82,0.0,1.0,86,0.00,,,0.00,0,weatherlink.com 1.10,2013-03-08 04:56:00,
2013-03-07 23:11:00,20.7,17.0,30.51,East,81,0.0,2.0,85,0.00,,,0.00,0,weatherlink.com 1.10,2013-03-08 05:11:00,
2013-03-07 23:27:00,19.6,17.0,30.51,East,86,0.0,1.0,88,0.00,,,0.00,0,weatherlink.com 1.10,2013-03-08 05:27:00,
2013-03-07 23:42:00,19.7,17.0,30.50,East,86,0.0,0.0,88,0.00,,,0.00,0,weatherlink.com 1.10,2013-03-08 05:42:00,
2013-03-07 23:57:00,19.5,17.0,30.50,East,86,0.0,0.0,88,0.00,,,0.00,0,weatherlink.com 1.10,2013-03-08 05:57:00,